User: anonymous   Login
Location: Little Chesterford
(52.0500°N, 0.1833°E)
Time: 23:41:28
(UTC+00:00)
Language:

ERS-1 Rocket - Orbit

View from above orbital plane
View from above orbital plane
View from above satellite
View from above satellite

Ground track
Ground track

The orbit data is extracted from the following two-line orbital elements,

1 21610U 91050F   24055.40909739  .00000540  00000-0  17852-3 0  9997
2 21610  98.3045 120.5495 0003728 150.5233 209.6167 14.41703541711703
Epoch (UTC): 24 February 2024 09:49:06
Eccentricity: 0.0003728
inclination: 98.3045°
perigee height: 750 km
apogee height: 755 km
right ascension of ascending node: 120.5495°
argument of perigee: 150.5233°
revolutions per day: 14.41703541
mean anomaly at epoch: 209.6167°
orbit number at epoch: 71170

The dashed part of the orbit path shows where the satellite is in the earth's shadow,  

DLR